Dewpoint
-19 -19 -15 -10 -3 2 4 4 4 5 4 4 3 2 2 3 5 6 7 6 6 6 7 5 5 7 5 5 6 6 6 6 6 7 8 7 7 7
-18 -17 -17 -16 -12 -6 1 4 4 4 4 3 3 3 3 -0 0 1 1 5 6 6 6 4 -1 -2 -1 -1 2 3 5 6 6 6 6 7 7 7
-14 -15 -17 -15 -13 -11 -5 1 3 4 4 3 2 3 3 2 0 -1 -3 -5 -5 -4 -3 -4 -3 -4 -5 -6 -6 -4 0 4 5 6 6 7 7 7
-17 -13 -12 -14 -13 -9 -8 -6 -0 3 4 3 1 2 2 3 3 2 -0 -2 -3 -5 -6 -6 -5 -5 -6 -6 -6 -4 -4 -4 5 5 5 6 6 6
-17 -17 -20 -21 -20 -14 -7 -5 -4 -2 2 3 2 2 1 2 2 2 2 1 -0 -3 -5 -5 -4 -3 -2 -3 -1 -1 -2 -4 -2 4 6 6 6 6
-14 -16 -19 -20 -21 -22 -11 -4 -3 -2 0 1 1 3 2 1 1 1 2 2 2 -1 -2 -1 -2 2 3 2 2 1 2 1 -3 5 7 7 6 7
-17 -19 -20 -21 -20 -19 -14 -3 -1 -1 -1 -1 -1 -0 2 3 3 1 1 2 2 2 -1 -4 -1 1 3 4 4 4 6 3 0 6 6 7 7 6
-18 -20 -21 -23 -23 -20 -16 -6 -2 -1 -1 -1 -0 0 1 0 1 3 2 1 1 1 1 -2 0 -2 1 3 4 6 6 7 6 6 7 7 6 6
-16 -16 -17 -19 -21 -20 -16 -10 -10 -5 -2 -1 -1 -1 -0 -0 1 1 2 2 1 0 1 1 -1 -4 1 2 4 5 6 7 7 7 7 6 5 5
-14 -12 -12 -18 -20 -18 -15 -9 -6 -6 -4 -3 -2 -2 -2 -1 -0 1 2 1 2 1 1 1 -0 -3 2 2 3 4 5 6 6 7 7 6 6 5
-15 -11 -11 -13 -19 -17 -12 -7 -6 -5 -4 -4 -4 -3 -2 -2 -1 -0 1 1 2 1 1 1 0 -1 2 2 3 4 5 5 6 6 6 6 6 5
-14 -13 -12 -12 -19 -17 -10 -7 -6 -5 -5 -5 -4 -5 -4 -3 -2 -1 -0 1 1 1 0 0 -0 1 2 1 3 4 4 4 5 6 6 6 6 6
-13 -14 -12 -12 -16 -15 -11 -9 -8 -8 -6 -5 -5 -5 -4 -4 -3 -2 -1 -0 1 1 1 0 0 -0 1 1 1 1 2 3 4 5 5 5 5 5
-11 -11 -11 -13 -14 -10 -9 -8 -8 -8 -7 -7 -6 -6 -6 -5 -4 -3 -2 -1 -0 0 1 0 -0 -1 0 1 1 1 2 2 3 4 4 5 4 4
-10 -11 -10 -10 -9 -8 -8 -8 -6 -6 -7 -6 -8 -7 -6 -5 -3 -1 -2 -1 -0 0 0 -0 -1 -0 -1 1 1 1 2 2 2 3 3 3 4 4
-11 -10 -10 -9 -8 -9 -11 -10 -8 -8 -7 -7 -8 -7 -6 -5 -3 -2 -1 -1 -0 0 0 -0 -1 -0 -0 0 -0 -0 0 1 2 2 2 2 2 3
-8 -7 -7 -8 -9 -9 -9 -9 -9 -7 -7 -7 -7 -7 -6 -5 -4 -3 -2 -1 -1 -1 -0 -0 -1 -1 -1 -1 -1 -1 -1 0 1 0 0 1 1 2
-6 -6 -7 -8 -8 -7 -6 -7 -8 -7 -6 -6 -7 -6 -6 -6 -5 -4 -3 -2 -1 -1 -1 -0 -1 -2 -1 -2 -1 -2 -2 0 0 -0 -0 -0 -0 0
-6 -6 -7 -7 -6 -6 -7 -6 -7 -7 -8 -8 -6 -6 -7 -7 -5 -4 -3 -2 -2 -2 -1 -1 -2 -2 -2 -3 -3 -2 -1 -0 -0 -1 -1 -1 -1 -0
-7 -7 -8 -8 -7 -7 -7 -7 -8 -8 -8 -8 -6 -6 -7 -5 -4 -4 -3 -3 -2 -2 -2 -2 -3 -3 -3 -3 -4 -3 -3 -1 -1 -2 -2 -2 -2 -2
-7 -7 -8 -8 -8 -8 -8 -8 -8 -7 -6 -6 -6 -6 -7 -5 -5 -4 -3 -3 -2 -2 -2 -3 -3 -4 -4 -4 -4 -4 -3 -3 -2 -2 -3 -3 -3 -3
-7 -7 -7 -7 -7 -7 -7 -7 -8 -8 -7 -6 -6 -7 -7 -5 -5 -4 -4 -3 -3 -2 -3 -4 -4 -5 -5 -5 -5 -5 -3 -3 -3 -4 -4 -4 -4 -3
-8 -8 -8 -7 -7 -7 -7 -7 -7 -7 -8 -7 -7 -6 -6 -5 -4 -4 -4 -4 -4 -4 -4 -5 -5 -6 -6 -6 -5 -4 -5 -4 -4 -5 -5 -5 -4 -4
Wind_Speed
20 21 23 24 24 24 25 27 28 30 29 27 22 18 14 18 18 20 21 22 26 28 27 27 28 30 28 29 29 29 30 32 34 34 35 35 34 33
21 22 22 24 27 27 27 26 28 32 38 30 31 31 31 28 26 28 30 32 32 33 33 33 32 31 31 30 31 31 31 31 32 33 35 36 34 33
23 22 24 24 25 27 28 28 30 30 37 40 35 34 34 32 26 24 25 26 31 34 36 36 32 30 30 30 31 32 32 32 31 32 32 34 34 34
24 23 22 22 25 26 26 27 30 29 30 36 38 38 36 33 34 30 23 23 23 24 26 27 28 28 29 30 31 31 32 32 32 32 33 33 33 31
22 23 24 25 26 26 26 29 28 29 31 30 37 35 37 34 31 30 29 25 22 22 24 23 23 26 29 28 29 29 31 32 32 30 31 32 33 32
24 24 23 23 25 26 27 27 27 29 29 31 35 33 33 35 33 31 31 30 28 21 22 21 22 20 20 22 25 27 29 28 31 31 28 26 28 28
25 24 23 23 24 23 26 26 26 28 30 32 35 39 29 28 32 30 30 28 29 25 25 21 18 18 19 20 21 23 23 23 28 29 29 27 27 27
25 23 22 21 21 21 21 21 24 25 27 27 27 29 32 35 31 31 28 27 28 26 24 24 22 22 18 21 20 17 16 17 22 24 24 25 25 26
26 25 24 24 22 22 22 22 21 25 28 28 29 29 30 31 30 37 36 34 35 31 31 35 30 23 16 17 21 21 13 16 20 22 21 22 22 22
27 26 26 26 24 23 23 24 23 20 22 22 27 31 33 33 31 30 33 35 36 36 31 35 33 22 15 16 18 22 21 17 19 19 21 21 21 20
28 27 27 27 26 22 22 24 24 25 23 22 24 26 26 28 32 33 32 33 32 33 30 27 28 22 14 13 15 17 18 21 22 19 23 21 20 19
31 29 28 27 26 24 22 23 26 28 26 26 28 26 28 28 26 31 33 35 31 29 28 22 20 13 10 13 10 10 17 23 23 22 20 20 21 21
30 30 28 28 27 26 24 23 25 26 28 29 33 29 28 27 28 28 30 30 30 30 30 26 22 19 20 20 17 16 19 16 17 20 22 20 20 18
31 30 31 32 30 28 26 26 24 26 29 30 30 33 33 29 27 28 28 28 30 28 28 27 24 23 20 18 20 16 13 17 20 19 19 20 18 16
31 34 33 33 30 28 30 30 29 31 32 32 34 34 34 30 29 25 28 28 27 27 25 27 22 24 23 23 21 20 18 17 16 19 19 20 20 19
29 31 32 32 33 38 38 37 35 36 35 35 33 32 29 29 28 28 26 27 28 28 27 25 22 23 22 20 20 19 18 17 13 14 18 20 20 20
32 31 34 37 38 37 38 37 32 30 30 30 30 30 32 31 30 27 28 28 31 31 30 25 24 24 23 19 21 21 21 21 19 18 18 19 19 19
32 34 35 36 38 36 31 33 32 28 28 25 25 28 31 32 29 28 27 32 29 32 30 26 25 24 21 22 25 26 22 20 18 18 18 19 20 19
32 33 37 37 37 32 32 35 35 33 30 29 28 29 33 37 29 26 28 28 30 32 28 25 26 24 24 27 25 22 16 15 16 17 18 20 21 21
31 34 36 36 36 35 35 34 32 31 30 27 28 30 32 27 26 26 27 28 27 28 26 25 26 27 27 27 22 19 17 15 14 14 17 19 18 19
31 31 31 30 30 28 28 28 28 26 27 25 30 31 31 26 26 24 26 25 25 27 27 27 26 23 23 22 22 20 17 16 14 14 16 16 17 17
30 30 30 29 28 26 26 26 27 29 27 28 30 32 27 25 25 24 24 25 26 26 25 25 23 25 24 24 23 18 16 14 14 16 16 16 14 11
28 27 27 26 25 25 26 26 27 26 28 28 31 25 23 25 22 21 23 23 24 24 22 21 21 21 19 20 20 18 16 15 13 14 15 17 15 13
Wind_Direction
293 289 284 282 280 277 274 275 278 282 283 285 287 287 271 257 250 252 252 256 255 254 262 263 265 264 265 263 261 258 256 255 251 249 251 252 254 254
294 292 288 285 282 279 275 272 274 274 277 279 282 285 287 275 261 264 265 263 262 264 265 270 271 265 263 261 261 260 259 256 255 253 252 253 252 254
291 289 289 289 284 281 277 275 272 273 275 279 282 282 283 286 278 273 274 276 272 267 268 269 267 264 263 262 258 258 256 256 255 254 252 254 253 254
292 289 286 285 284 284 281 278 273 275 279 280 279 279 279 283 290 291 283 284 295 276 268 267 267 266 263 259 256 256 256 253 253 254 254 253 254 253
288 289 291 289 284 283 281 278 276 275 273 280 283 282 282 283 283 284 290 292 297 286 277 272 272 271 265 262 258 259 259 253 249 253 251 252 251 253
286 289 291 290 293 285 278 276 277 275 276 276 275 289 282 279 281 282 284 294 297 291 283 277 283 283 269 268 267 267 264 253 243 245 250 249 249 251
285 285 286 287 288 293 284 280 282 283 281 282 282 271 280 282 279 282 279 284 292 299 291 283 278 281 274 262 270 267 263 255 240 242 248 249 250 251
289 290 292 294 293 293 295 267 270 275 276 278 280 279 279 273 279 282 279 279 287 295 297 290 277 285 289 266 258 256 259 260 246 245 247 248 249 251
288 292 295 298 298 298 298 300 286 265 264 270 272 273 278 275 276 274 279 281 284 287 290 292 292 291 288 281 251 248 256 253 249 248 243 243 245 249
286 289 292 296 294 298 297 299 301 297 285 279 273 272 269 270 269 273 277 279 279 280 281 288 294 286 287 289 253 246 245 250 257 249 242 247 250 254
287 285 286 290 292 294 292 291 296 291 287 286 284 277 272 267 264 269 273 271 265 269 273 283 288 288 292 289 272 255 242 243 253 257 250 247 250 255
287 283 282 286 292 293 287 281 282 284 291 291 290 283 271 269 263 256 264 269 256 267 271 272 286 279 283 283 273 274 258 250 245 251 254 251 255 256
284 282 280 283 287 288 287 282 271 281 284 286 292 289 289 274 265 259 254 257 264 262 267 270 256 259 269 276 272 279 272 266 254 254 257 254 246 256
280 279 279 283 288 287 286 283 280 279 280 282 283 282 285 280 270 262 257 258 261 262 260 267 255 254 264 268 277 279 290 264 257 258 258 256 246 256
274 274 274 277 280 281 281 282 277 279 280 281 282 279 281 280 275 271 258 257 259 259 252 261 247 254 255 262 267 276 290 290 275 256 254 249 252 247
279 272 272 272 267 274 276 276 276 279 278 278 276 281 281 280 275 268 267 255 256 254 250 261 247 247 248 251 260 268 278 282 276 257 249 245 244 240
279 275 275 274 275 277 281 285 289 287 277 272 269 273 277 282 272 270 265 261 257 245 245 256 242 243 246 250 261 268 276 272 269 256 254 241 235 234
276 271 271 270 272 277 276 284 290 281 278 277 267 268 274 279 277 268 266 266 251 252 241 246 235 237 239 251 263 272 264 264 260 250 245 238 233 227
269 266 267 271 274 273 274 280 282 279 278 274 267 270 275 277 272 268 263 260 257 245 241 237 230 229 240 251 261 261 262 265 255 245 239 234 230 223
266 265 269 273 277 278 280 280 281 282 277 266 265 274 282 270 274 270 262 255 248 237 237 231 229 233 239 249 253 254 256 259 249 238 233 226 223 221
279 279 279 279 279 278 277 278 279 278 278 264 274 273 281 268 269 270 259 252 243 237 236 236 236 239 242 239 235 240 247 246 245 231 227 223 220 219
280 280 280 279 278 276 277 276 276 276 273 269 274 282 270 262 266 262 252 241 236 234 236 237 234 235 232 219 224 231 235 232 228 217 212 216 213 217
282 282 282 280 278 278 276 274 277 278 277 277 281 271 262 261 260 248 245 239 237 234 229 228 226 221 212 207 214 222 221 221 215 208 207 214 217 214
Height
1484 1482 1480 1478 1477 1476 1475 1474 1473 1468 1465 1465 1466 1467 1467 1466 1466 1465 1465 1465 1463 1465 1463 1464 1463 1463 1462 1461 1461 1461 1462 1464 1467 1468 1471 1472 1473 1475
1478 1476 1474 1473 1470 1468 1467 1466 1465 1463 1456 1459 1459 1460 1460 1459 1459 1458 1457 1457 1456 1455 1456 1456 1456 1454 1453 1452 1452 1453 1454 1455 1458 1460 1461 1464 1464 1467
1473 1469 1467 1466 1464 1462 1460 1460 1457 1457 1451 1449 1452 1453 1452 1452 1452 1451 1450 1449 1447 1447 1446 1446 1446 1444 1444 1443 1444 1445 1446 1447 1448 1452 1453 1456 1455 1457
1465 1463 1460 1459 1457 1456 1454 1451 1451 1450 1448 1443 1443 1444 1444 1444 1443 1442 1442 1441 1439 1438 1437 1436 1435 1434 1435 1434 1435 1436 1436 1437 1441 1443 1444 1446 1449 1448
1457 1456 1454 1452 1449 1447 1447 1444 1442 1441 1441 1439 1435 1436 1434 1435 1436 1436 1434 1432 1432 1431 1429 1427 1427 1427 1427 1425 1427 1426 1427 1428 1431 1435 1435 1437 1439 1440
1450 1449 1447 1444 1442 1439 1438 1438 1436 1433 1433 1431 1429 1429 1428 1428 1427 1428 1426 1426 1424 1423 1421 1420 1419 1418 1418 1418 1418 1418 1420 1419 1422 1426 1429 1428 1432 1433
1442 1440 1439 1437 1435 1432 1430 1430 1429 1427 1426 1424 1422 1422 1422 1421 1421 1422 1422 1421 1419 1418 1415 1414 1412 1412 1413 1412 1412 1412 1412 1411 1414 1418 1422 1423 1424 1425
1434 1432 1431 1429 1428 1425 1423 1423 1423 1420 1419 1418 1416 1415 1415 1416 1417 1415 1415 1414 1413 1413 1410 1407 1407 1406 1406 1404 1405 1405 1406 1406 1409 1412 1415 1417 1416 1417
1427 1425 1424 1423 1421 1419 1416 1414 1412 1412 1412 1411 1408 1408 1407 1408 1409 1407 1406 1405 1404 1406 1404 1400 1400 1399 1400 1397 1399 1400 1400 1402 1405 1407 1408 1410 1411 1411
1419 1418 1417 1415 1414 1413 1410 1407 1405 1404 1404 1403 1401 1400 1400 1401 1400 1399 1398 1396 1397 1397 1397 1393 1393 1392 1392 1392 1392 1394 1396 1397 1399 1400 1402 1403 1404 1404
1409 1409 1409 1407 1406 1406 1404 1401 1400 1398 1397 1396 1394 1393 1391 1391 1391 1391 1389 1389 1388 1389 1390 1391 1388 1389 1389 1389 1388 1388 1389 1391 1392 1394 1396 1396 1398 1398
1400 1399 1399 1399 1398 1397 1396 1395 1393 1391 1391 1389 1386 1384 1384 1383 1383 1383 1383 1382 1382 1383 1385 1387 1385 1387 1384 1383 1383 1383 1383 1384 1387 1388 1388 1390 1391 1392
1391 1390 1390 1391 1391 1389 1389 1387 1385 1385 1383 1382 1379 1377 1375 1375 1375 1374 1375 1376 1376 1377 1379 1380 1381 1382 1380 1379 1379 1379 1378 1379 1380 1381 1382 1382 1384 1385
1382 1382 1382 1382 1382 1381 1379 1378 1378 1377 1375 1373 1371 1369 1368 1367 1367 1367 1368 1368 1369 1370 1372 1372 1373 1374 1374 1374 1374 1374 1373 1373 1374 1374 1375 1377 1378 1380
1374 1373 1373 1373 1372 1371 1370 1369 1369 1368 1366 1363 1361 1359 1358 1358 1358 1357 1358 1359 1361 1362 1362 1363 1365 1367 1368 1368 1369 1369 1369 1369 1369 1369 1370 1371 1373 1374
1365 1364 1363 1363 1363 1362 1360 1359 1359 1358 1356 1353 1351 1350 1350 1349 1348 1348 1348 1350 1351 1353 1354 1355 1358 1359 1361 1363 1363 1364 1365 1365 1364 1363 1364 1365 1366 1368
1354 1353 1352 1351 1350 1349 1348 1347 1347 1347 1345 1344 1343 1342 1341 1341 1339 1339 1339 1340 1341 1343 1346 1348 1350 1353 1355 1356 1357 1358 1359 1359 1359 1358 1359 1359 1361 1362
1343 1341 1340 1339 1339 1338 1337 1336 1337 1337 1335 1335 1334 1334 1333 1332 1331 1331 1331 1330 1332 1335 1337 1340 1343 1346 1348 1349 1351 1351 1352 1352 1352 1353 1353 1354 1356 1357
1331 1330 1328 1329 1329 1329 1328 1327 1327 1327 1327 1326 1325 1325 1324 1322 1322 1322 1322 1323 1324 1326 1329 1332 1336 1339 1342 1342 1344 1345 1345 1346 1346 1347 1349 1350 1352 1354
1320 1320 1319 1319 1319 1318 1317 1317 1316 1316 1316 1315 1316 1316 1314 1313 1313 1312 1313 1314 1317 1319 1322 1326 1329 1331 1334 1337 1338 1340 1341 1341 1342 1343 1345 1347 1349 1351
1309 1309 1309 1309 1308 1308 1308 1307 1307 1306 1305 1306 1306 1306 1304 1304 1304 1304 1305 1306 1309 1312 1315 1318 1322 1327 1329 1331 1333 1334 1336 1337 1338 1340 1342 1344 1346 1347
1301 1300 1299 1299 1299 1299 1299 1298 1298 1297 1297 1297 1296 1295 1294 1295 1295 1296 1297 1300 1302 1306 1309 1312 1316 1319 1322 1324 1328 1330 1332 1333 1334 1336 1338 1341 1343 1343
1291 1290 1290 1289 1289 1289 1289 1289 1289 1288 1288 1288 1287 1285 1286 1286 1287 1288 1291 1293 1297 1300 1303 1306 1309 1312 1315 1320 1324 1327 1329 1330 1331 1333 1335 1337 1339 1341